Year,Month,Day,Hour,Minute,Value (Times are PST for temperature in C)
2011,12,13,00,00,-0.10
2011,12,13,00,01,-0.10
2011,12,13,00,02,-0.10
2011,12,13,00,03,-0.10
2011,12,13,00,04,-0.10
2011,12,13,00,05,-0.10
2011,12,13,00,06,-0.10
2011,12,13,00,07,-0.10
2011,12,13,00,08,-0.10
2011,12,13,00,09,-0.10
2011,12,13,00,10,-0.10
2011,12,13,00,11,-0.10
2011,12,13,00,12,-0.10
2011,12,13,00,13,-0.10
2011,12,13,00,14,-0.10
2011,12,13,00,15,-0.10
2011,12,13,00,16,-0.10
2011,12,13,00,17,0.00
2011,12,13,00,18,0.00
2011,12,13,00,19,0.00
2011,12,13,00,20,0.00
2011,12,13,00,21,0.00
2011,12,13,00,22,0.00
2011,12,13,00,23,0.00
2011,12,13,00,24,0.00
2011,12,13,00,25,0.00
2011,12,13,00,26,0.00
2011,12,13,00,27,0.00
2011,12,13,00,28,0.00
2011,12,13,00,29,0.00
2011,12,13,00,30,0.10
2011,12,13,00,31,0.00
2011,12,13,00,32,0.00
2011,12,13,00,33,0.00
2011,12,13,00,34,0.00
2011,12,13,00,35,0.00
2011,12,13,00,36,0.00
2011,12,13,00,37,0.00
2011,12,13,00,38,0.00
2011,12,13,00,39,0.00
2011,12,13,00,40,0.00
2011,12,13,00,41,0.00
2011,12,13,00,42,0.00
2011,12,13,00,43,0.00
2011,12,13,00,44,0.00
2011,12,13,00,45,0.00
2011,12,13,00,46,0.00
2011,12,13,00,47,0.00
2011,12,13,00,48,0.00
2011,12,13,00,49,0.00
2011,12,13,00,50,0.00
2011,12,13,00,51,0.00
2011,12,13,00,52,0.00
2011,12,13,00,53,0.10
2011,12,13,00,54,0.10
2011,12,13,00,55,0.00
2011,12,13,00,56,0.00
2011,12,13,00,57,0.10
2011,12,13,00,58,0.10
2011,12,13,00,59,0.00
2011,12,13,01,00,0.00
2011,12,13,01,01,0.10
2011,12,13,01,02,0.00
2011,12,13,01,03,0.00
2011,12,13,01,04,0.10
2011,12,13,01,05,0.10
2011,12,13,01,06,0.10
2011,12,13,01,07,0.10
2011,12,13,01,08,0.10
2011,12,13,01,09,0.10
2011,12,13,01,10,0.10
2011,12,13,01,11,0.10
2011,12,13,01,12,0.10
2011,12,13,01,13,0.10
2011,12,13,01,14,0.10
2011,12,13,01,15,0.10
2011,12,13,01,16,0.10
2011,12,13,01,17,0.10
2011,12,13,01,18,0.10
2011,12,13,01,19,0.10
2011,12,13,01,20,0.10
2011,12,13,01,21,0.10
2011,12,13,01,22,0.10
2011,12,13,01,23,0.10
2011,12,13,01,24,0.10
2011,12,13,01,25,0.10
2011,12,13,01,26,0.10
2011,12,13,01,27,0.10
2011,12,13,01,28,0.10
2011,12,13,01,29,0.10
2011,12,13,01,30,0.10
2011,12,13,01,31,0.10
2011,12,13,01,32,0.10
2011,12,13,01,33,0.10
2011,12,13,01,34,0.10
2011,12,13,01,35,0.10
2011,12,13,01,36,0.10
2011,12,13,01,37,0.10
2011,12,13,01,38,0.10
2011,12,13,01,39,0.10
2011,12,13,01,40,0.10
2011,12,13,01,41,0.10
2011,12,13,01,42,0.10
2011,12,13,01,43,0.10
2011,12,13,01,44,0.10
2011,12,13,01,45,0.10
2011,12,13,01,46,0.10
2011,12,13,01,47,0.10
2011,12,13,01,48,0.10
2011,12,13,01,49,0.10
2011,12,13,01,50,0.10
2011,12,13,01,51,0.10
2011,12,13,01,52,0.10
2011,12,13,01,53,0.10
2011,12,13,01,54,0.10
2011,12,13,01,55,0.10
2011,12,13,01,56,0.10
2011,12,13,01,57,0.10
2011,12,13,01,58,0.10
2011,12,13,01,59,0.10
2011,12,13,02,00,0.10
2011,12,13,02,01,0.10
2011,12,13,02,02,0.10
2011,12,13,02,03,0.10
2011,12,13,02,04,0.10
2011,12,13,02,05,0.10
2011,12,13,02,06,0.10
2011,12,13,02,07,0.10
2011,12,13,02,08,0.10
2011,12,13,02,09,0.10
2011,12,13,02,10,0.10
2011,12,13,02,11,0.10
2011,12,13,02,12,0.10
2011,12,13,02,13,0.10
2011,12,13,02,14,0.10
2011,12,13,02,15,0.10
2011,12,13,02,16,0.10
2011,12,13,02,17,0.10
2011,12,13,02,18,0.20
2011,12,13,02,19,0.20
2011,12,13,02,20,0.20
2011,12,13,02,21,0.20
2011,12,13,02,22,0.20
2011,12,13,02,23,0.20
2011,12,13,02,24,0.20
2011,12,13,02,25,0.20
2011,12,13,02,26,0.20
2011,12,13,02,27,0.20
2011,12,13,02,28,0.20
2011,12,13,02,29,0.20
2011,12,13,02,30,0.20
2011,12,13,02,31,0.20
2011,12,13,02,32,0.20
2011,12,13,02,33,0.20
2011,12,13,02,34,0.20
2011,12,13,02,35,0.20
2011,12,13,02,36,0.20
2011,12,13,02,37,0.20
2011,12,13,02,38,0.20
2011,12,13,02,39,0.20
2011,12,13,02,40,0.20
2011,12,13,02,41,0.30
2011,12,13,02,42,0.30
2011,12,13,02,43,0.30
2011,12,13,02,44,0.30
2011,12,13,02,45,0.30
2011,12,13,02,46,0.30
2011,12,13,02,47,0.20
2011,12,13,02,48,0.30
2011,12,13,02,49,0.20
2011,12,13,02,50,0.20
2011,12,13,02,51,0.20
2011,12,13,02,52,0.20
2011,12,13,02,53,0.20
2011,12,13,02,54,0.30
2011,12,13,02,55,0.30
2011,12,13,02,56,0.30
2011,12,13,02,57,0.30
2011,12,13,02,58,0.30
2011,12,13,02,59,0.30
2011,12,13,03,00,0.30
2011,12,13,03,01,0.30
2011,12,13,03,02,0.30
2011,12,13,03,03,0.30
2011,12,13,03,04,0.30
2011,12,13,03,05,0.30
2011,12,13,03,06,0.30
2011,12,13,03,07,0.30
2011,12,13,03,08,0.30
2011,12,13,03,09,0.30
2011,12,13,03,10,0.30
2011,12,13,03,11,0.30
2011,12,13,03,12,0.30
2011,12,13,03,13,0.30
2011,12,13,03,14,0.30
2011,12,13,03,15,0.30
2011,12,13,03,16,0.30
2011,12,13,03,17,0.30
2011,12,13,03,18,0.30
2011,12,13,03,19,0.30
2011,12,13,03,20,0.30
2011,12,13,03,21,0.30
2011,12,13,03,22,0.30
2011,12,13,03,23,0.30
2011,12,13,03,24,0.30
2011,12,13,03,25,0.30
2011,12,13,03,26,0.30
2011,12,13,03,27,0.30
2011,12,13,03,28,0.30
2011,12,13,03,29,0.30
2011,12,13,03,30,0.30
2011,12,13,03,31,0.30
2011,12,13,03,32,0.30
2011,12,13,03,33,0.30
2011,12,13,03,34,0.30
2011,12,13,03,35,0.30
2011,12,13,03,36,0.30
2011,12,13,03,37,0.30
2011,12,13,03,38,0.30
2011,12,13,03,39,0.30
2011,12,13,03,40,0.30
2011,12,13,03,41,0.30
2011,12,13,03,42,0.30
2011,12,13,03,43,0.30
2011,12,13,03,44,0.30
2011,12,13,03,45,0.30
2011,12,13,03,46,0.30
2011,12,13,03,47,0.30
2011,12,13,03,48,0.30
2011,12,13,03,49,0.30
2011,12,13,03,50,0.30
2011,12,13,03,51,0.30
2011,12,13,03,52,0.30
2011,12,13,03,53,0.30
2011,12,13,03,54,0.30
2011,12,13,03,55,0.30
2011,12,13,03,56,0.30
2011,12,13,03,57,0.30
2011,12,13,03,58,0.30
2011,12,13,03,59,0.30
2011,12,13,04,00,0.30
2011,12,13,04,01,0.30
2011,12,13,04,02,0.30
2011,12,13,04,03,0.30
2011,12,13,04,04,0.30
2011,12,13,04,05,0.30
2011,12,13,04,06,0.30
2011,12,13,04,07,0.30
2011,12,13,04,08,0.30
2011,12,13,04,09,0.30
2011,12,13,04,10,0.30
2011,12,13,04,11,0.30
2011,12,13,04,12,0.30
2011,12,13,04,13,0.30
2011,12,13,04,14,0.30
2011,12,13,04,15,0.40
2011,12,13,04,16,0.40
2011,12,13,04,17,0.40
2011,12,13,04,18,0.40
2011,12,13,04,19,0.40
2011,12,13,04,20,0.40
2011,12,13,04,21,0.40
2011,12,13,04,22,0.40
2011,12,13,04,23,0.40
2011,12,13,04,24,0.40
2011,12,13,04,25,0.40
2011,12,13,04,26,0.40
2011,12,13,04,27,0.40
2011,12,13,04,28,0.40
2011,12,13,04,29,0.40
2011,12,13,04,30,0.40
2011,12,13,04,31,0.40
2011,12,13,04,32,0.40
2011,12,13,04,33,0.40
2011,12,13,04,34,0.40
2011,12,13,04,35,0.40
2011,12,13,04,36,0.40
2011,12,13,04,37,0.40
2011,12,13,04,38,0.40
2011,12,13,04,39,0.50
2011,12,13,04,40,0.50
2011,12,13,04,41,0.50
2011,12,13,04,42,0.50
2011,12,13,04,43,0.40
2011,12,13,04,44,0.40
2011,12,13,04,45,0.50
2011,12,13,04,46,0.50
2011,12,13,04,47,0.50
2011,12,13,04,48,0.50
2011,12,13,04,49,0.50
2011,12,13,04,50,0.50
2011,12,13,04,51,0.50
2011,12,13,04,52,0.50
2011,12,13,04,53,0.50
2011,12,13,04,54,0.50
2011,12,13,04,55,0.50
2011,12,13,04,56,0.50
2011,12,13,04,57,0.50
2011,12,13,04,58,0.50
2011,12,13,04,59,0.50
2011,12,13,05,00,0.50
2011,12,13,05,01,0.50
2011,12,13,05,02,0.50
2011,12,13,05,03,0.50
2011,12,13,05,04,0.50
2011,12,13,05,05,0.50
2011,12,13,05,06,0.50
2011,12,13,05,07,0.50
2011,12,13,05,08,0.50
2011,12,13,05,09,0.60
2011,12,13,05,10,0.60
2011,12,13,05,11,0.60
2011,12,13,05,12,0.60
2011,12,13,05,13,0.60
2011,12,13,05,14,0.60
2011,12,13,05,15,0.60
2011,12,13,05,16,0.60
2011,12,13,05,17,0.60
2011,12,13,05,18,0.60
2011,12,13,05,19,0.60
2011,12,13,05,20,0.60
2011,12,13,05,21,0.60
2011,12,13,05,22,0.60
2011,12,13,05,23,0.60
2011,12,13,05,24,0.60
2011,12,13,05,25,0.60
2011,12,13,05,26,0.60
2011,12,13,05,27,0.60
2011,12,13,05,28,0.60
2011,12,13,05,29,0.60
2011,12,13,05,30,0.60
2011,12,13,05,31,0.60
2011,12,13,05,32,0.60
2011,12,13,05,33,0.60
2011,12,13,05,34,0.60
2011,12,13,05,35,0.60
2011,12,13,05,36,0.60
2011,12,13,05,37,0.60
2011,12,13,05,38,0.60
2011,12,13,05,39,0.60
2011,12,13,05,40,0.60
2011,12,13,05,41,0.60
2011,12,13,05,42,0.60
2011,12,13,05,43,0.60
2011,12,13,05,44,0.60
2011,12,13,05,45,0.60
2011,12,13,05,46,0.60
2011,12,13,05,47,0.60
2011,12,13,05,48,0.60
2011,12,13,05,49,0.60
2011,12,13,05,50,0.50
2011,12,13,05,51,0.50
2011,12,13,05,52,0.50
2011,12,13,05,53,0.50
2011,12,13,05,54,0.50
2011,12,13,05,55,0.50
2011,12,13,05,56,0.50
2011,12,13,05,57,0.50
2011,12,13,05,58,0.50
2011,12,13,05,59,0.50
2011,12,13,06,00,0.40
2011,12,13,06,01,0.40
2011,12,13,06,02,0.40
2011,12,13,06,03,0.40
2011,12,13,06,04,0.40
2011,12,13,06,05,0.40
2011,12,13,06,06,0.40
2011,12,13,06,07,0.40
2011,12,13,06,08,0.40
2011,12,13,06,09,0.40
2011,12,13,06,10,0.40
2011,12,13,06,11,0.40
2011,12,13,06,12,0.40
2011,12,13,06,13,0.40
2011,12,13,06,14,0.40
2011,12,13,06,15,0.40
2011,12,13,06,16,0.40
2011,12,13,06,17,0.40
2011,12,13,06,18,0.40
2011,12,13,06,19,0.40
2011,12,13,06,20,0.40
2011,12,13,06,21,0.40
2011,12,13,06,22,0.40
2011,12,13,06,23,0.40
2011,12,13,06,24,0.40
2011,12,13,06,25,0.40
2011,12,13,06,26,0.40
2011,12,13,06,27,0.30
2011,12,13,06,28,0.30
2011,12,13,06,29,0.30
2011,12,13,06,30,0.30
2011,12,13,06,31,0.30
2011,12,13,06,32,0.30
2011,12,13,06,33,0.30
2011,12,13,06,34,0.30
2011,12,13,06,35,0.30
2011,12,13,06,36,0.30
2011,12,13,06,37,0.30
2011,12,13,06,38,0.30
2011,12,13,06,39,0.30
2011,12,13,06,40,0.20
2011,12,13,06,41,0.20
2011,12,13,06,42,0.20
2011,12,13,06,43,0.20
2011,12,13,06,44,0.20
2011,12,13,06,45,0.20
2011,12,13,06,46,0.20
2011,12,13,06,47,0.20
2011,12,13,06,48,0.20
2011,12,13,06,49,0.20
2011,12,13,06,50,0.20
2011,12,13,06,51,0.20
2011,12,13,06,52,0.20
2011,12,13,06,53,0.20
2011,12,13,06,54,0.20
2011,12,13,06,55,0.20
2011,12,13,06,56,0.10
2011,12,13,06,57,0.10
2011,12,13,06,58,0.10
2011,12,13,06,59,0.10
2011,12,13,07,00,0.10
2011,12,13,07,01,0.10
2011,12,13,07,02,0.10
2011,12,13,07,03,0.10
2011,12,13,07,04,0.10
2011,12,13,07,05,0.10
2011,12,13,07,06,0.10
2011,12,13,07,07,0.10
2011,12,13,07,08,0.10
2011,12,13,07,09,0.10
2011,12,13,07,10,0.10
2011,12,13,07,11,0.10
2011,12,13,07,12,0.10
2011,12,13,07,13,0.10
2011,12,13,07,14,0.10
2011,12,13,07,15,0.10
2011,12,13,07,16,0.10
2011,12,13,07,17,0.10
2011,12,13,07,18,0.10
2011,12,13,07,19,0.10
2011,12,13,07,20,0.10
2011,12,13,07,21,0.10
2011,12,13,07,22,0.10
2011,12,13,07,23,0.10
2011,12,13,07,24,0.20
2011,12,13,07,25,0.20
2011,12,13,07,26,0.20
2011,12,13,07,27,0.20
2011,12,13,07,28,0.20
2011,12,13,07,29,0.20
2011,12,13,07,30,0.20
2011,12,13,07,31,0.20
2011,12,13,07,32,0.20
2011,12,13,07,33,0.10
2011,12,13,07,34,0.10
2011,12,13,07,35,0.10
2011,12,13,07,36,0.10
2011,12,13,07,37,0.10
2011,12,13,07,38,0.10
2011,12,13,07,39,0.10
2011,12,13,07,40,0.20
2011,12,13,07,41,0.20
2011,12,13,07,42,0.10
2011,12,13,07,43,0.10
2011,12,13,07,44,0.10
2011,12,13,07,45,0.10
2011,12,13,07,46,0.10
2011,12,13,07,47,0.10
2011,12,13,07,48,0.10
2011,12,13,07,49,0.10
2011,12,13,07,50,0.10
2011,12,13,07,51,0.10
2011,12,13,07,52,0.10
2011,12,13,07,53,0.10
2011,12,13,07,54,0.10
2011,12,13,07,55,0.10
2011,12,13,07,56,0.20
2011,12,13,07,57,0.20
2011,12,13,07,58,0.20
2011,12,13,07,59,0.20
2011,12,13,08,00,0.20
2011,12,13,08,01,0.20
2011,12,13,08,02,0.20
2011,12,13,08,03,0.20
2011,12,13,08,04,0.20
2011,12,13,08,05,0.20
2011,12,13,08,06,0.20
2011,12,13,08,07,0.20
2011,12,13,08,08,0.20
2011,12,13,08,09,0.20
2011,12,13,08,10,0.20
2011,12,13,08,11,0.20
2011,12,13,08,12,0.20
2011,12,13,08,13,0.20
2011,12,13,08,14,0.20
2011,12,13,08,15,0.30
2011,12,13,08,16,0.30
2011,12,13,08,17,0.30
2011,12,13,08,18,0.30
2011,12,13,08,19,0.30
2011,12,13,08,20,0.30
2011,12,13,08,21,0.30
2011,12,13,08,22,0.30
2011,12,13,08,23,0.30
2011,12,13,08,24,0.30
2011,12,13,08,25,0.30
2011,12,13,08,26,0.30
2011,12,13,08,27,0.30
2011,12,13,08,28,0.30
2011,12,13,08,29,0.30
2011,12,13,08,30,0.30
2011,12,13,08,31,0.30
2011,12,13,08,32,0.30
2011,12,13,08,33,0.30
2011,12,13,08,34,0.30
2011,12,13,08,35,0.30
2011,12,13,08,36,0.40
2011,12,13,08,37,0.40
2011,12,13,08,38,0.40
2011,12,13,08,39,0.40
2011,12,13,08,40,0.40
2011,12,13,08,41,0.40
2011,12,13,08,42,0.40
2011,12,13,08,43,0.40
2011,12,13,08,44,0.40
2011,12,13,08,45,0.40
2011,12,13,08,46,0.40
2011,12,13,08,47,0.50
2011,12,13,08,48,0.50
2011,12,13,08,49,0.50
2011,12,13,08,50,0.50
2011,12,13,08,51,0.50
2011,12,13,08,52,0.50
2011,12,13,08,53,0.50
2011,12,13,08,54,0.50
2011,12,13,08,55,0.60
2011,12,13,08,56,0.60
2011,12,13,08,57,0.60
2011,12,13,08,58,0.60
2011,12,13,08,59,0.60
2011,12,13,09,00,0.60
2011,12,13,09,01,0.60
2011,12,13,09,02,0.60
2011,12,13,09,03,0.60
2011,12,13,09,04,0.60
2011,12,13,09,05,0.60
2011,12,13,09,06,0.70
2011,12,13,09,07,0.70
2011,12,13,09,08,0.70
2011,12,13,09,09,0.70
2011,12,13,09,10,0.70
2011,12,13,09,11,0.70
2011,12,13,09,12,0.70
2011,12,13,09,13,0.80
2011,12,13,09,14,0.80
2011,12,13,09,15,0.80
2011,12,13,09,16,0.80
2011,12,13,09,17,0.80
2011,12,13,09,18,0.80
2011,12,13,09,19,0.80
2011,12,13,09,20,0.90
2011,12,13,09,21,0.90
2011,12,13,09,22,0.90
2011,12,13,09,23,0.90
2011,12,13,09,24,0.90
2011,12,13,09,25,0.90
2011,12,13,09,26,1.00
2011,12,13,09,27,1.00
2011,12,13,09,28,1.00
2011,12,13,09,29,1.10
2011,12,13,09,30,1.10
2011,12,13,09,31,1.10
2011,12,13,09,32,1.10
2011,12,13,09,33,1.10
2011,12,13,09,34,1.20
2011,12,13,09,35,1.20
2011,12,13,09,36,1.20
2011,12,13,09,37,1.20
2011,12,13,09,38,1.20
2011,12,13,09,39,1.20
2011,12,13,09,40,1.20
2011,12,13,09,41,1.20
2011,12,13,09,42,1.20
2011,12,13,09,43,1.20
2011,12,13,09,44,1.20
2011,12,13,09,45,1.20
2011,12,13,09,46,1.20
2011,12,13,09,47,1.20
2011,12,13,09,48,1.20
2011,12,13,09,49,1.20
2011,12,13,09,50,1.20
2011,12,13,09,51,1.30
2011,12,13,09,52,1.30
2011,12,13,09,53,1.30
2011,12,13,09,54,1.30
2011,12,13,09,55,1.30
2011,12,13,09,56,1.30
2011,12,13,09,57,1.30
2011,12,13,09,58,1.30
2011,12,13,09,59,1.30
2011,12,13,10,00,1.30
2011,12,13,10,01,1.30
2011,12,13,10,02,1.30
2011,12,13,10,03,1.40
2011,12,13,10,04,1.40
2011,12,13,10,05,1.40
2011,12,13,10,06,1.40
2011,12,13,10,07,1.50
2011,12,13,10,08,1.50
2011,12,13,10,09,1.60
2011,12,13,10,10,1.60
2011,12,13,10,11,1.60
2011,12,13,10,12,1.70
2011,12,13,10,13,1.70
2011,12,13,10,14,1.70
2011,12,13,10,15,1.80
2011,12,13,10,16,1.80
2011,12,13,10,17,1.80
2011,12,13,10,18,1.80
2011,12,13,10,19,1.80
2011,12,13,10,20,1.80
2011,12,13,10,21,1.80
2011,12,13,10,22,1.70
2011,12,13,10,23,1.70
2011,12,13,10,24,1.70
2011,12,13,10,25,1.70
2011,12,13,10,26,1.70
2011,12,13,10,27,1.70
2011,12,13,10,28,1.60
2011,12,13,10,29,1.60
2011,12,13,10,30,1.60
2011,12,13,10,31,1.60
2011,12,13,10,32,1.60
2011,12,13,10,33,1.60
2011,12,13,10,34,1.60
2011,12,13,10,35,1.70
2011,12,13,10,36,1.70
2011,12,13,10,37,1.70
2011,12,13,10,38,1.70
2011,12,13,10,39,1.70
2011,12,13,10,40,1.70
2011,12,13,10,41,1.80
2011,12,13,10,42,1.80
2011,12,13,10,43,1.80
2011,12,13,10,44,1.80
2011,12,13,10,45,1.80
2011,12,13,10,46,1.80
2011,12,13,10,47,1.80
2011,12,13,10,48,1.80
2011,12,13,10,49,1.80
2011,12,13,10,50,1.80
2011,12,13,10,51,1.80
2011,12,13,10,52,1.80
2011,12,13,10,53,1.80
2011,12,13,10,54,1.80
2011,12,13,10,55,1.80
2011,12,13,10,56,1.80
2011,12,13,10,57,1.80
2011,12,13,10,58,1.80
2011,12,13,10,59,1.80
2011,12,13,11,00,1.80
2011,12,13,11,01,1.80
2011,12,13,11,02,1.80
2011,12,13,11,03,1.80
2011,12,13,11,04,1.80
2011,12,13,11,05,1.80
2011,12,13,11,06,1.80
2011,12,13,11,07,1.80
2011,12,13,11,08,1.80
2011,12,13,11,09,1.80
2011,12,13,11,10,1.80
2011,12,13,11,11,1.80
2011,12,13,11,12,1.80
2011,12,13,11,13,1.80
2011,12,13,11,14,1.80
2011,12,13,11,15,1.80
2011,12,13,11,16,1.80
2011,12,13,11,17,1.80
2011,12,13,11,18,1.80
2011,12,13,11,19,1.80
2011,12,13,11,20,1.80
2011,12,13,11,21,1.80
2011,12,13,11,22,1.80
2011,12,13,11,23,1.80
2011,12,13,11,24,1.80
2011,12,13,11,25,1.80
2011,12,13,11,26,1.80
2011,12,13,11,27,1.80
2011,12,13,11,28,1.80
2011,12,13,11,29,1.80
2011,12,13,11,30,1.90
2011,12,13,11,31,1.90
2011,12,13,11,32,1.90
2011,12,13,11,33,1.90
2011,12,13,11,34,1.90
2011,12,13,11,35,1.90
2011,12,13,11,36,1.90
2011,12,13,11,37,1.90
2011,12,13,11,38,2.00
2011,12,13,11,39,2.00
2011,12,13,11,40,2.00
2011,12,13,11,41,2.00
2011,12,13,11,42,2.00
2011,12,13,11,43,2.00
2011,12,13,11,44,2.10
2011,12,13,11,45,2.10
2011,12,13,11,46,2.10
2011,12,13,11,47,2.10
2011,12,13,11,48,2.10
2011,12,13,11,49,2.10
2011,12,13,11,50,2.10
2011,12,13,11,51,2.10
2011,12,13,11,52,2.20
2011,12,13,11,53,2.20
2011,12,13,11,54,2.20
2011,12,13,11,55,2.20
2011,12,13,11,56,2.20
2011,12,13,11,57,2.20
2011,12,13,11,58,2.20
2011,12,13,11,59,2.20
2011,12,13,12,00,2.20
2011,12,13,12,01,2.20
2011,12,13,12,02,2.20
2011,12,13,12,03,2.20
2011,12,13,12,04,2.20
2011,12,13,12,05,2.20
2011,12,13,12,06,2.20
2011,12,13,12,07,2.20
2011,12,13,12,08,2.20
2011,12,13,12,09,2.20
2011,12,13,12,10,2.30
2011,12,13,12,11,2.30
2011,12,13,12,12,2.30
2011,12,13,12,13,2.30
2011,12,13,12,14,2.30
2011,12,13,12,15,2.30
2011,12,13,12,16,2.30
2011,12,13,12,17,2.30
2011,12,13,12,18,2.30
2011,12,13,12,19,2.30
2011,12,13,12,20,2.30
2011,12,13,12,21,2.30
2011,12,13,12,22,2.30
2011,12,13,12,23,2.30
2011,12,13,12,24,2.30
2011,12,13,12,25,2.30
2011,12,13,12,26,2.40
2011,12,13,12,27,2.40
2011,12,13,12,28,2.40
2011,12,13,12,29,2.40
2011,12,13,12,30,2.40
2011,12,13,12,31,2.40
2011,12,13,12,32,2.40
2011,12,13,12,33,2.40
2011,12,13,12,34,2.40
2011,12,13,12,35,2.40
2011,12,13,12,36,2.40
2011,12,13,12,37,2.40
2011,12,13,12,38,2.50
2011,12,13,12,39,2.50
2011,12,13,12,40,2.50
2011,12,13,12,41,2.50
2011,12,13,12,42,2.50
2011,12,13,12,43,2.50
2011,12,13,12,44,2.50
2011,12,13,12,45,2.50
2011,12,13,12,46,2.50
2011,12,13,12,47,2.50
2011,12,13,12,48,2.60
2011,12,13,12,49,2.60
2011,12,13,12,50,2.60
2011,12,13,12,51,2.60
2011,12,13,12,52,2.60
2011,12,13,12,53,2.60
2011,12,13,12,54,2.60
2011,12,13,12,55,2.60
2011,12,13,12,56,2.50
2011,12,13,12,57,2.50
2011,12,13,12,58,2.50
2011,12,13,12,59,2.60
2011,12,13,13,00,2.60
2011,12,13,13,01,2.60
2011,12,13,13,02,2.60
2011,12,13,13,03,2.60
2011,12,13,13,04,2.60
2011,12,13,13,05,2.60
2011,12,13,13,06,2.60
2011,12,13,13,07,2.60
2011,12,13,13,08,2.60
2011,12,13,13,09,2.60
2011,12,13,13,10,2.60
2011,12,13,13,11,2.60
2011,12,13,13,12,2.60
2011,12,13,13,13,2.60
2011,12,13,13,14,2.60
2011,12,13,13,15,2.60
2011,12,13,13,16,2.60
2011,12,13,13,17,2.60
2011,12,13,13,18,2.60
2011,12,13,13,19,2.60
2011,12,13,13,20,2.60
2011,12,13,13,21,2.60
2011,12,13,13,22,2.60
2011,12,13,13,23,2.60
2011,12,13,13,24,2.60
2011,12,13,13,25,2.70
2011,12,13,13,26,2.70
2011,12,13,13,27,2.70
2011,12,13,13,28,2.70
2011,12,13,13,29,2.70
2011,12,13,13,30,2.70
2011,12,13,13,31,2.70
2011,12,13,13,32,2.80
2011,12,13,13,33,2.80
2011,12,13,13,34,2.80
2011,12,13,13,35,2.70
2011,12,13,13,36,2.70
2011,12,13,13,37,2.70
2011,12,13,13,38,2.70
2011,12,13,13,39,2.70
2011,12,13,13,40,2.70
2011,12,13,13,41,2.70
2011,12,13,13,42,2.80
2011,12,13,13,43,2.80
2011,12,13,13,44,2.80
2011,12,13,13,45,2.80
2011,12,13,13,46,2.80
2011,12,13,13,47,2.80
2011,12,13,13,48,2.90
2011,12,13,13,49,2.90
2011,12,13,13,50,2.90
2011,12,13,13,51,2.90
2011,12,13,13,52,3.00
2011,12,13,13,53,3.00
2011,12,13,13,54,3.10
2011,12,13,13,55,3.10
2011,12,13,13,56,3.10
2011,12,13,13,57,3.10
2011,12,13,13,58,3.10
2011,12,13,13,59,3.20
2011,12,13,14,00,3.20
2011,12,13,14,01,3.20
2011,12,13,14,02,3.20
2011,12,13,14,03,3.20
2011,12,13,14,04,3.20
2011,12,13,14,05,3.20
2011,12,13,14,06,3.20
2011,12,13,14,07,3.20
2011,12,13,14,08,3.20
2011,12,13,14,09,3.20
2011,12,13,14,10,3.20
2011,12,13,14,11,3.20
2011,12,13,14,12,3.20
2011,12,13,14,13,3.20
2011,12,13,14,14,3.20
2011,12,13,14,15,3.20
2011,12,13,14,16,3.20
2011,12,13,14,17,3.20
2011,12,13,14,18,3.20
2011,12,13,14,19,3.30
2011,12,13,14,20,3.30
2011,12,13,14,21,3.30
2011,12,13,14,22,3.30
2011,12,13,14,23,3.30
2011,12,13,14,24,3.30
2011,12,13,14,25,3.30
2011,12,13,14,26,3.30
2011,12,13,14,27,3.30
2011,12,13,14,28,3.30
2011,12,13,14,29,3.30
2011,12,13,14,30,3.30
2011,12,13,14,31,3.20
2011,12,13,14,32,3.20
2011,12,13,14,33,3.20
2011,12,13,14,34,3.20
2011,12,13,14,35,3.10
2011,12,13,14,36,3.10
2011,12,13,14,37,3.10
2011,12,13,14,38,3.10
2011,12,13,14,39,3.10
2011,12,13,14,40,3.10
2011,12,13,14,41,3.10
2011,12,13,14,42,3.10
2011,12,13,14,43,3.10
2011,12,13,14,44,3.10
2011,12,13,14,45,3.20
2011,12,13,14,46,3.20
2011,12,13,14,47,3.20
2011,12,13,14,48,3.20
2011,12,13,14,49,3.20
2011,12,13,14,50,3.20
2011,12,13,14,51,3.20
2011,12,13,14,52,3.20
2011,12,13,14,53,3.20
2011,12,13,14,54,3.20
2011,12,13,14,55,3.20
2011,12,13,14,56,3.20
2011,12,13,14,57,3.20
2011,12,13,14,58,3.20
2011,12,13,14,59,3.20
2011,12,13,15,00,3.20
2011,12,13,15,01,3.20
2011,12,13,15,02,3.20
2011,12,13,15,03,3.20
2011,12,13,15,04,3.10
2011,12,13,15,05,3.10
2011,12,13,15,06,3.10
2011,12,13,15,07,3.10
2011,12,13,15,08,3.10
2011,12,13,15,09,3.10
2011,12,13,15,10,3.10
2011,12,13,15,11,3.10
2011,12,13,15,12,3.00
2011,12,13,15,13,3.00
2011,12,13,15,14,3.00
2011,12,13,15,15,3.00
2011,12,13,15,16,2.90
2011,12,13,15,17,2.90
2011,12,13,15,18,2.90
2011,12,13,15,19,2.90
2011,12,13,15,20,2.90
2011,12,13,15,21,2.90
2011,12,13,15,22,2.90
2011,12,13,15,23,2.90
2011,12,13,15,24,2.90
2011,12,13,15,25,2.90
2011,12,13,15,26,2.90
2011,12,13,15,27,2.90
2011,12,13,15,28,2.90
2011,12,13,15,29,2.90
2011,12,13,15,30,2.90
2011,12,13,15,31,2.90
2011,12,13,15,32,2.90
2011,12,13,15,33,2.90
2011,12,13,15,34,2.90
2011,12,13,15,35,2.90
2011,12,13,15,36,2.90
2011,12,13,15,37,2.90
2011,12,13,15,38,2.90
2011,12,13,15,39,2.80
2011,12,13,15,40,2.80
2011,12,13,15,41,2.80
2011,12,13,15,42,2.80
2011,12,13,15,43,2.80
2011,12,13,15,44,2.70
2011,12,13,15,45,2.70
2011,12,13,15,46,2.70
2011,12,13,15,47,2.70
2011,12,13,15,48,2.70
2011,12,13,15,49,2.70
2011,12,13,15,50,2.70
2011,12,13,15,51,2.60
2011,12,13,15,52,2.60
2011,12,13,15,53,2.60
2011,12,13,15,54,2.60
2011,12,13,15,55,2.60
2011,12,13,15,56,2.60
2011,12,13,15,57,2.50
2011,12,13,15,58,2.50
2011,12,13,15,59,2.50
2011,12,13,16,00,2.50
2011,12,13,16,01,2.40
2011,12,13,16,02,2.40
2011,12,13,16,03,2.40
2011,12,13,16,04,2.40
2011,12,13,16,05,2.40
2011,12,13,16,06,2.30
2011,12,13,16,07,2.30
2011,12,13,16,08,2.30
2011,12,13,16,09,2.30
2011,12,13,16,10,2.30
2011,12,13,16,11,2.30
2011,12,13,16,12,2.30
2011,12,13,16,13,2.20
2011,12,13,16,14,2.20
2011,12,13,16,15,2.20
2011,12,13,16,16,2.20
2011,12,13,16,17,2.20
2011,12,13,16,18,2.20
2011,12,13,16,19,2.10
2011,12,13,16,20,2.10
2011,12,13,16,21,2.10
2011,12,13,16,22,2.10
2011,12,13,16,23,2.10
2011,12,13,16,24,2.00
2011,12,13,16,25,2.00
2011,12,13,16,26,2.00
2011,12,13,16,27,1.90
2011,12,13,16,28,1.90
2011,12,13,16,29,1.90
2011,12,13,16,30,1.90
2011,12,13,16,31,1.90
2011,12,13,16,32,1.80
2011,12,13,16,33,1.80
2011,12,13,16,34,1.80
2011,12,13,16,35,1.70
2011,12,13,16,36,1.70
2011,12,13,16,37,1.70
2011,12,13,16,38,1.70
2011,12,13,16,39,1.60
2011,12,13,16,40,1.60
2011,12,13,16,41,1.60
2011,12,13,16,42,1.50
2011,12,13,16,43,1.50
2011,12,13,16,44,1.40
2011,12,13,16,45,1.40
2011,12,13,16,46,1.40
2011,12,13,16,47,1.40
2011,12,13,16,48,1.30
2011,12,13,16,49,1.30
2011,12,13,16,50,1.30
2011,12,13,16,51,1.30
2011,12,13,16,52,1.30
2011,12,13,16,53,1.30
2011,12,13,16,54,1.30
2011,12,13,16,55,1.30
2011,12,13,16,56,1.30
2011,12,13,16,57,1.30
2011,12,13,16,58,1.30
2011,12,13,16,59,1.30
2011,12,13,17,00,1.30
2011,12,13,17,01,1.30
2011,12,13,17,02,1.30
2011,12,13,17,03,1.30
2011,12,13,17,04,1.20
2011,12,13,17,05,1.20
2011,12,13,17,06,1.20
2011,12,13,17,07,1.20
2011,12,13,17,08,1.20
2011,12,13,17,09,1.20
2011,12,13,17,10,1.10
2011,12,13,17,11,1.10
2011,12,13,17,12,1.10
2011,12,13,17,13,1.10
2011,12,13,17,14,1.10
2011,12,13,17,15,1.10
2011,12,13,17,16,1.10
2011,12,13,17,17,1.10
2011,12,13,17,18,1.10
2011,12,13,17,19,1.10
2011,12,13,17,20,1.10
2011,12,13,17,21,1.10
2011,12,13,17,22,1.10
2011,12,13,17,23,1.10
2011,12,13,17,24,1.10
2011,12,13,17,25,1.10
2011,12,13,17,26,1.10
2011,12,13,17,27,1.10
2011,12,13,17,28,1.10
2011,12,13,17,29,1.10
2011,12,13,17,30,1.10
2011,12,13,17,31,1.10
2011,12,13,17,32,1.10
2011,12,13,17,33,1.10
2011,12,13,17,34,1.10
2011,12,13,17,35,1.00
2011,12,13,17,36,1.00
2011,12,13,17,37,1.00
2011,12,13,17,38,1.00
2011,12,13,17,39,1.00
2011,12,13,17,40,0.90
2011,12,13,17,41,0.90
2011,12,13,17,42,0.90
2011,12,13,17,43,0.90
2011,12,13,17,44,0.90
2011,12,13,17,45,0.90
2011,12,13,17,46,0.90
2011,12,13,17,47,0.90
2011,12,13,17,48,0.90
2011,12,13,17,49,0.90
2011,12,13,17,50,0.90
2011,12,13,17,51,0.80
2011,12,13,17,52,0.80
2011,12,13,17,53,0.80
2011,12,13,17,54,0.80
2011,12,13,17,55,0.80
2011,12,13,17,56,0.80
2011,12,13,17,57,0.80
2011,12,13,17,58,0.80
2011,12,13,17,59,0.80
2011,12,13,18,00,0.80
2011,12,13,18,01,0.80
2011,12,13,18,02,0.80
2011,12,13,18,03,0.80
2011,12,13,18,04,0.80
2011,12,13,18,05,0.80